Weather History for Chicago Lansing, IL

Change the Weather History Date:

Saturday, May 4, 2013

  Actual Average (KMDW) Record (KMDW)
Temperature  
Mean Temperature 60 °F 57 °F  
Max Temperature 73 °F 66 °F 82 °F (1999)
Min Temperature 48 °F 48 °F 37 °F (2005)
Degree Days  
Heating Degree Days 4 9  
Month to date heating degree days 37  
Since 1 July heating degree days 5808  
Cooling Degree Days 0 1  
Month to date cooling degree days 4  
Year to date cooling degree days 17  
Growing Degree Days 10 (Base 50)    
Moisture  
Dew Point 46 °F    
Average Humidity 64    
Maximum Humidity 93    
Minimum Humidity 32    
Precipitation  
Precipitation 0.00 in 0.12 in 0.93 in (2003)
Month to date precipitation 0.49  
Year to date precipitation 10.85  
Sea Level Pressure  
Sea Level Pressure 29.98 in    
Wind  
Wind Speed 5 mph (East)    
Max Wind Speed 15 mph    
Max Gust Speed 23 mph    
Visibility 9 miles    
Events Rain    
T = Trace of Precipitation, MM = Missing Value Source: NWS Daily Summary

Daily Weather History Graph

Daily Weather History Graph

Search for Another Location

Airport:

Trip Planner

Search our weather history database for the weather conditions in past years. The results will help you decide how hot, cold, wet, or windy it might be!

Date:

Astronomy

May. 04, 2013 Rise Set
Actual Time 5:42 AM CDT 7:51 PM CDT
Civil Twilight 5:12 AM CDT 8:22 PM CDT
Nautical Twilight 4:35 AM CDT 8:59 PM CDT
Astronomical Twilight 3:54 AM CDT 9:40 PM CDT
Moon 2:45 AM CDT (5/4) 2:45 PM CDT (5/4)
Length of Visible Light 15h 09m
Length of Day
14h 08m
Waning Crescent, 27% of the Moon is Illuminated
May 4
Waning Crescent
May 9
New
May 17
First Quarter
May 24
Full
May 31
Last Quarter

Hourly Weather History & Observations

Time (CDT) Temp. Dew Point Humidity Pressure Visibility Wind Dir Wind Speed Gust Speed Precip Events Conditions
12:15 AM 48.2 °F 45.9 °F 92% 29.95 in 7.0 mi Calm Calm - N/A   Clear
12:35 AM 48.2 °F 46.0 °F 92% 29.95 in 7.0 mi NNE 4.6 mph - N/A   Clear
12:55 AM 48.4 °F 46.4 °F 93% 29.95 in 7.0 mi NE 4.6 mph - N/A   Scattered Clouds
1:15 AM 48.4 °F 46.4 °F 93% 29.97 in 7.0 mi WSW 5.8 mph - N/A   Scattered Clouds
1:35 AM 48.4 °F 46.6 °F 93% 29.96 in 7.0 mi Calm Calm - N/A   Clear
1:55 AM 48.2 °F 46.4 °F 93% 29.96 in 7.0 mi Calm Calm - N/A   Clear
2:15 AM 48.4 °F 46.6 °F 93% 29.95 in 7.0 mi NNE 3.5 mph - N/A   Clear
2:35 AM 48.2 °F 46.4 °F 93% 29.94 in 7.0 mi Calm Calm - N/A   Clear
2:55 AM 48.4 °F 46.4 °F 93% 29.95 in 7.0 mi Calm Calm - N/A   Clear
3:15 AM 48.4 °F 46.4 °F 93% 29.95 in 7.0 mi Calm Calm - N/A   Clear
3:35 AM 48.4 °F 46.4 °F 93% 29.95 in 7.0 mi NE 3.5 mph - N/A   Scattered Clouds
3:55 AM 48.7 °F 46.8 °F 93% 29.95 in 7.0 mi NE 3.5 mph - N/A   Scattered Clouds
4:15 AM 48.9 °F 46.8 °F 92% 29.95 in 7.0 mi NNE 3.5 mph - N/A   Scattered Clouds
4:35 AM 49.1 °F 46.8 °F 92% 29.96 in 7.0 mi Calm Calm - N/A   Clear
4:55 AM 49.1 °F 46.6 °F 91% 29.96 in 7.0 mi NE 3.5 mph - N/A   Mostly Cloudy
5:15 AM 48.7 °F 46.6 °F 92% 29.96 in 7.0 mi Calm Calm - N/A   Scattered Clouds
5:35 AM 49.1 °F 46.8 °F 92% 29.96 in 7.0 mi NE 3.5 mph - N/A   Clear
5:55 AM 50.0 °F 46.9 °F 89% 29.96 in 10.0 mi ENE 3.5 mph - N/A   Scattered Clouds
6:15 AM 51.6 °F 46.6 °F 83% 29.96 in 10.0 mi East 4.6 mph - N/A   Overcast
6:35 AM 52.3 °F 46.8 °F 81% 29.97 in 10.0 mi East 4.6 mph - N/A   Mostly Cloudy
6:55 AM 52.7 °F 46.8 °F 80% 29.97 in 10.0 mi Calm Calm - N/A   Scattered Clouds
7:15 AM 53.8 °F 47.8 °F 80% 29.97 in 10.0 mi East 3.5 mph - N/A   Scattered Clouds
7:35 AM 56.1 °F 47.7 °F 73% 29.97 in 10.0 mi ESE 4.6 mph - N/A Rain Light Rain
7:55 AM 58.3 °F 46.8 °F 66% 29.98 in 10.0 mi ESE 9.2 mph - N/A   Scattered Clouds
8:15 AM 59.4 °F 46.4 °F 62% 29.98 in 10.0 mi ESE 9.2 mph - N/A   Mostly Cloudy
8:35 AM 60.6 °F 46.0 °F 59% 29.98 in 10.0 mi SE 11.5 mph - N/A   Scattered Clouds
8:55 AM 61.7 °F 46.4 °F 57% 29.99 in 10.0 mi ESE 11.5 mph - N/A   Scattered Clouds
9:15 AM 62.1 °F 46.6 °F 57% 29.99 in 10.0 mi SE 12.7 mph - N/A   Clear
9:35 AM 62.1 °F 46.8 °F 57% 29.99 in 10.0 mi SE 9.2 mph 16.1 mph N/A   Scattered Clouds
9:55 AM 63.1 °F 47.7 °F 57% 29.99 in 10.0 mi SE 10.4 mph - N/A   Mostly Cloudy
10:15 AM 63.9 °F 47.5 °F 55% 29.99 in 10.0 mi SE 9.2 mph - N/A   Clear
10:35 AM 65.5 °F 48.2 °F 54% 29.99 in 10.0 mi SE 11.5 mph - N/A   Clear
10:55 AM 66.2 °F 48.4 °F 53% 29.99 in 10.0 mi SE 12.7 mph - N/A   Clear
11:15 AM 67.1 °F 48.4 °F 51% 29.99 in 10.0 mi ESE 11.5 mph - N/A   Clear
11:35 AM 68.5 °F 49.1 °F 50% 29.99 in 10.0 mi ESE 5.8 mph - N/A   Clear
11:55 AM 70.2 °F 48.7 °F 46% 29.98 in 10.0 mi ESE 10.4 mph - N/A   Clear
12:15 PM 71.2 °F 48.6 °F 45% 29.98 in 10.0 mi ESE 12.7 mph 18.4 mph N/A   Clear
12:35 PM 70.9 °F 48.0 °F 44% 29.97 in 10.0 mi East 6.9 mph 16.1 mph N/A   Scattered Clouds
12:55 PM 70.3 °F 47.8 °F 45% 29.96 in 10.0 mi East 13.8 mph 17.3 mph N/A   Scattered Clouds
1:15 PM 70.7 °F 48.0 °F 44% 29.97 in 10.0 mi East 13.8 mph 18.4 mph N/A   Scattered Clouds
1:35 PM 72.0 °F 48.2 °F 43% 29.96 in 10.0 mi East 15.0 mph 23.0 mph N/A   Clear
1:55 PM 70.9 °F 47.5 °F 43% 29.96 in 10.0 mi ENE 10.4 mph 17.3 mph N/A   Mostly Cloudy
2:15 PM 70.2 °F 48.0 °F 45% 29.96 in 10.0 mi NE 11.5 mph - N/A   Mostly Cloudy
2:35 PM 71.2 °F 48.0 °F 44% 29.95 in 10.0 mi NE 8.1 mph 11.5 mph N/A   Scattered Clouds
2:55 PM 72.9 °F 48.7 °F 42% 29.95 in 10.0 mi Calm Calm - N/A   Scattered Clouds
3:15 PM 73.9 °F 44.2 °F 35% 29.95 in 10.0 mi SE 13.8 mph 20.7 mph N/A   Mostly Cloudy
3:35 PM 70.5 °F 47.8 °F 44% 29.95 in 10.0 mi NE 8.1 mph 23.0 mph N/A   Scattered Clouds
3:55 PM 70.3 °F 46.9 °F 43% 29.95 in 10.0 mi NNE 8.1 mph - N/A   Scattered Clouds
4:15 PM 69.6 °F 47.5 °F 45% 29.95 in 10.0 mi NNE 5.8 mph - N/A   Mostly Cloudy
4:35 PM 71.4 °F 43.9 °F 37% 29.95 in 10.0 mi SE 11.5 mph 17.3 mph N/A   Overcast
4:55 PM 70.7 °F 41.4 °F 35% 29.95 in 10.0 mi SSE 10.4 mph 18.4 mph N/A   Overcast
5:15 PM 70.7 °F 39.0 °F 32% 29.95 in 10.0 mi SSE 15.0 mph 19.6 mph N/A   Overcast
5:35 PM 70.3 °F 39.7 °F 33% 29.96 in 10.0 mi SSE 5.8 mph - N/A   Overcast
5:55 PM 70.0 °F 39.6 °F 33% 29.96 in 10.0 mi SSE 8.1 mph - N/A   Overcast
6:15 PM 68.9 °F 39.0 °F 34% 29.96 in 10.0 mi SSE 9.2 mph - N/A   Overcast
6:35 PM 68.4 °F 39.0 °F 34% 29.97 in 10.0 mi South 5.8 mph - N/A   Overcast
6:55 PM 67.6 °F 40.1 °F 37% 29.97 in 10.0 mi South 5.8 mph - N/A   Mostly Cloudy
7:15 PM 66.9 °F 39.6 °F 37% 29.98 in 10.0 mi South 6.9 mph - N/A   Overcast
7:35 PM 64.6 °F 48.6 °F 56% 29.99 in 10.0 mi WSW 11.5 mph - N/A   Overcast
7:55 PM 62.2 °F 50.7 °F 66% 30.00 in 10.0 mi WSW 9.2 mph - N/A   Mostly Cloudy
8:15 PM 60.4 °F 51.3 °F 72% 30.01 in 10.0 mi WSW 6.9 mph - N/A   Mostly Cloudy
8:35 PM 59.4 °F 51.1 °F 74% 30.02 in 10.0 mi West 5.8 mph - N/A   Scattered Clouds
8:55 PM 59.7 °F 51.1 °F 73% 30.03 in 10.0 mi NW 4.6 mph - N/A   Clear
9:15 PM 57.6 °F 44.1 °F 61% 30.04 in 10.0 mi North 3.5 mph - N/A   Clear
9:35 PM 55.8 °F 44.6 °F 66% 30.03 in 10.0 mi NNW 4.6 mph - N/A   Clear
9:55 PM 55.4 °F 43.7 °F 65% 30.03 in 10.0 mi North 3.5 mph - N/A   Clear
10:15 PM 55.2 °F 43.3 °F 64% 30.04 in 10.0 mi Calm Calm - N/A   Clear
10:35 PM 54.3 °F 43.9 °F 68% 30.03 in 10.0 mi NW 3.5 mph - N/A   Clear
10:55 PM 53.6 °F 44.1 °F 70% 30.04 in 10.0 mi Calm Calm - N/A   Clear
11:15 PM 53.1 °F 43.7 °F 71% 30.03 in 10.0 mi WNW 3.5 mph - N/A   Clear
11:35 PM 52.2 °F 43.7 °F 73% 30.03 in 10.0 mi NNW 3.5 mph - N/A   Clear
11:55 PM 52.7 °F 43.3 °F 70% 30.03 in 10.0 mi Calm Calm - N/A   Clear